Time,TemperatureF,DewpointF,PressureIn,WindDirection,WindDirectionDegrees,WindSpeedMPH,WindSpeedGustMPH,Humidity,HourlyPrecipIn,Conditions,Clouds,dailyrainin,SolarRadiationWatts/m^2,SoftwareType,DateUTC
2013-02-02 00:00:00,-3.2,-7.8,30.14,South,187,0.0,4.0,80,0.00,,---,0.00,0.00,VWS V14.01,2013-02-02 06:00:00,
2013-02-02 00:05:00,-3.2,-7.8,30.14,SSW,205,0.0,1.0,80,0.00,,---,0.00,0.00,VWS V14.01,2013-02-02 06:05:00,
2013-02-02 00:10:00,-3.2,-7.8,30.14,SSW,203,1.0,2.0,80,0.00,,---,0.00,0.00,VWS V14.01,2013-02-02 06:10:00,
2013-02-02 00:15:00,-3.2,-7.8,30.14,SSW,203,0.0,2.0,80,0.00,,---,0.00,0.00,VWS V14.01,2013-02-02 06:15:00,
2013-02-02 00:20:00,-3.2,-7.8,30.14,SSW,202,1.0,3.0,80,0.00,,---,0.00,0.00,VWS V14.01,2013-02-02 06:20:00,
2013-02-02 00:25:00,-3.2,-7.8,30.14,South,169,1.0,3.0,80,0.00,,---,0.00,0.00,VWS V14.01,2013-02-02 06:25:00,
2013-02-02 00:30:00,-3.2,-7.8,30.14,South,178,2.0,5.0,80,0.00,,---,0.00,0.00,VWS V14.01,2013-02-02 06:30:00,
2013-02-02 00:35:00,-3.2,-7.8,30.13,WSW,237,0.0,3.0,80,0.00,,---,0.00,0.00,VWS V14.01,2013-02-02 06:35:00,
2013-02-02 00:40:00,-3.2,-8.1,30.13,SW,223,2.0,3.0,79,0.00,,---,0.00,0.00,VWS V14.01,2013-02-02 06:40:00,
2013-02-02 00:45:00,-3.2,-7.8,30.13,SSW,194,1.0,3.0,80,0.00,,---,0.00,0.00,VWS V14.01,2013-02-02 06:45:00,
2013-02-02 00:50:00,-3.3,-7.9,30.13,SSW,194,0.0,3.0,80,0.00,,---,0.00,0.00,VWS V14.01,2013-02-02 06:50:00,
2013-02-02 00:55:00,-3.3,-7.9,30.13,South,188,1.0,3.0,80,0.00,,---,0.00,0.00,VWS V14.01,2013-02-02 06:55:00,
2013-02-02 01:00:00,-3.3,-7.9,30.13,South,188,1.0,3.0,80,0.00,,---,0.00,0.00,VWS V14.01,2013-02-02 07:00:00,
2013-02-02 01:05:00,-3.4,-8.0,30.13,South,190,1.0,2.0,80,0.00,,---,0.00,0.00,VWS V14.01,2013-02-02 07:05:00,
2013-02-02 01:10:00,-3.4,-8.0,30.13,South,190,0.0,2.0,80,0.00,,---,0.00,0.00,VWS V14.01,2013-02-02 07:10:00,
2013-02-02 01:15:00,-3.5,-8.1,30.13,SSE,165,4.0,4.0,80,0.00,,---,0.00,0.00,VWS V14.01,2013-02-02 07:15:00,
2013-02-02 01:20:00,-3.5,-8.1,30.13,SSE,165,0.0,4.0,80,0.00,,---,0.00,0.00,VWS V14.01,2013-02-02 07:20:00,
2013-02-02 01:25:00,-3.5,-8.1,30.13,SSE,165,0.0,4.0,80,0.00,,---,0.00,0.00,VWS V14.01,2013-02-02 07:25:00,
2013-02-02 01:30:00,-3.6,-8.2,30.13,SSW,196,0.0,4.0,80,0.00,,---,0.00,0.00,VWS V14.01,2013-02-02 07:30:00,
2013-02-02 01:35:00,-3.6,-8.2,30.13,SSW,198,0.0,3.0,80,0.00,,---,0.00,0.00,VWS V14.01,2013-02-02 07:35:00,
2013-02-02 01:40:00,-3.6,-8.2,30.13,SSW,198,0.0,3.0,80,0.00,,---,0.00,0.00,VWS V14.01,2013-02-02 07:40:00,
2013-02-02 01:45:00,-3.6,-8.2,30.13,SSW,198,0.0,3.0,80,0.00,,---,0.00,0.00,VWS V14.01,2013-02-02 07:45:00,
2013-02-02 01:50:00,-3.6,-7.9,30.13,SSW,200,0.0,3.0,81,0.00,,---,0.00,0.00,VWS V14.01,2013-02-02 07:50:00,
2013-02-02 01:55:00,-3.7,-8.1,30.13,SSW,205,1.0,4.0,81,0.00,,---,0.00,0.00,VWS V14.01,2013-02-02 07:55:00,
2013-02-02 02:00:00,-3.7,-8.1,30.13,SSW,205,0.0,4.0,81,0.00,,---,0.00,0.00,VWS V14.01,2013-02-02 08:00:00,
2013-02-02 02:05:00,-3.7,-8.1,30.14,SSW,205,0.0,1.0,81,0.00,,---,0.00,0.00,VWS V14.01,2013-02-02 08:05:00,
2013-02-02 02:10:00,-3.7,-8.1,30.14,SSW,205,0.0,2.0,81,0.00,,---,0.00,0.00,VWS V14.01,2013-02-02 08:10:00,
2013-02-02 02:15:00,-3.8,-8.1,30.14,SSW,205,0.0,2.0,81,0.00,,---,0.00,0.00,VWS V14.01,2013-02-02 08:15:00,
2013-02-02 02:20:00,-3.8,-8.1,30.14,SSW,205,0.0,2.0,81,0.00,,---,0.00,0.00,VWS V14.01,2013-02-02 08:20:00,
2013-02-02 02:25:00,-3.9,-8.2,30.14,SSW,205,0.0,2.0,81,0.00,,---,0.00,0.00,VWS V14.01,2013-02-02 08:25:00,
2013-02-02 02:30:00,-3.9,-8.2,30.14,SSW,205,1.0,2.0,81,0.00,,---,0.00,0.00,VWS V14.01,2013-02-02 08:30:00,
2013-02-02 02:35:00,-3.9,-8.2,30.14,SSW,206,1.0,3.0,81,0.00,,---,0.00,0.00,VWS V14.01,2013-02-02 08:35:00,
2013-02-02 02:40:00,-3.9,-8.2,30.14,SSW,206,0.0,3.0,81,0.00,,---,0.00,0.00,VWS V14.01,2013-02-02 08:40:00,
2013-02-02 02:45:00,-4.0,-8.4,30.14,SSW,206,1.0,3.0,81,0.00,,---,0.00,0.00,VWS V14.01,2013-02-02 08:45:00,
2013-02-02 02:50:00,-4.0,-8.4,30.14,SSW,207,0.0,3.0,81,0.00,,---,0.00,0.00,VWS V14.01,2013-02-02 08:50:00,
2013-02-02 02:55:00,-4.0,-8.4,30.14,SSW,207,0.0,3.0,81,0.00,,---,0.00,0.00,VWS V14.01,2013-02-02 08:55:00,
2013-02-02 03:00:00,-4.1,-8.4,30.14,SSW,207,0.0,3.0,81,0.00,,---,0.00,0.00,VWS V14.01,2013-02-02 09:00:00,
2013-02-02 03:05:00,-4.1,-8.4,30.14,SSW,208,1.0,2.0,81,0.00,,---,0.00,0.00,VWS V14.01,2013-02-02 09:05:00,
2013-02-02 03:10:00,-4.1,-8.4,30.14,South,191,0.0,3.0,81,0.00,,---,0.00,0.00,VWS V14.01,2013-02-02 09:10:00,
2013-02-02 03:15:00,-4.1,-8.4,30.14,SSW,192,0.0,3.0,81,0.00,,---,0.00,0.00,VWS V14.01,2013-02-02 09:15:00,
2013-02-02 03:20:00,-4.1,-8.4,30.14,SSW,192,0.0,3.0,81,0.00,,---,0.00,0.00,VWS V14.01,2013-02-02 09:20:00,
2013-02-02 03:25:00,-4.2,-8.5,30.14,SSW,192,0.0,3.0,81,0.00,,---,0.00,0.00,VWS V14.01,2013-02-02 09:25:00,
2013-02-02 03:30:00,-4.2,-8.3,30.14,SSW,192,0.0,3.0,82,0.00,,---,0.00,0.00,VWS V14.01,2013-02-02 09:30:00,
2013-02-02 03:35:00,-4.3,-8.4,30.14,SSW,192,0.0,0.0,82,0.00,,---,0.00,0.00,VWS V14.01,2013-02-02 09:35:00,
2013-02-02 03:40:00,-4.3,-8.4,30.14,SSW,192,0.0,0.0,82,0.00,,---,0.00,0.00,VWS V14.01,2013-02-02 09:40:00,
2013-02-02 03:45:00,-4.3,-8.4,30.14,SSW,192,0.0,2.0,82,0.00,,---,0.00,0.00,VWS V14.01,2013-02-02 09:45:00,
2013-02-02 03:50:00,-4.4,-8.5,30.14,SSW,192,0.0,2.0,82,0.00,,---,0.00,0.00,VWS V14.01,2013-02-02 09:50:00,
2013-02-02 03:55:00,-4.5,-8.6,30.14,SSW,192,0.0,2.0,82,0.00,,---,0.00,0.00,VWS V14.01,2013-02-02 09:55:00,
2013-02-02 04:00:00,-4.6,-8.7,30.14,SSW,192,0.0,2.0,82,0.00,,---,0.00,0.00,VWS V14.01,2013-02-02 10:00:00,
2013-02-02 04:05:00,-4.6,-8.7,30.14,SSW,192,0.0,1.0,82,0.00,,---,0.00,0.00,VWS V14.01,2013-02-02 10:05:00,
2013-02-02 04:10:00,-4.8,-8.9,30.14,SSW,192,0.0,1.0,82,0.00,,---,0.00,0.00,VWS V14.01,2013-02-02 10:10:00,
2013-02-02 04:15:00,-4.9,-9.0,30.14,SSW,192,0.0,1.0,82,0.00,,---,0.00,0.00,VWS V14.01,2013-02-02 10:15:00,
2013-02-02 04:20:00,-5.1,-9.2,30.14,SSW,192,0.0,1.0,82,0.00,,---,0.00,0.00,VWS V14.01,2013-02-02 10:20:00,
2013-02-02 04:25:00,-5.3,-9.4,30.14,SSW,192,0.0,1.0,82,0.00,,---,0.00,0.00,VWS V14.01,2013-02-02 10:25:00,
2013-02-02 04:30:00,-5.5,-9.6,30.14,SSW,192,0.0,1.0,82,0.00,,---,0.00,0.00,VWS V14.01,2013-02-02 10:30:00,
2013-02-02 04:35:00,-5.7,-9.8,30.15,SSW,192,0.0,0.0,82,0.00,,---,0.00,0.00,VWS V14.01,2013-02-02 10:35:00,
2013-02-02 04:40:00,-5.9,-10.2,30.15,SSW,192,0.0,1.0,81,0.00,,---,0.00,0.00,VWS V14.01,2013-02-02 10:40:00,
2013-02-02 04:45:00,-6.2,-10.5,30.15,SSW,192,0.0,1.0,81,0.00,,---,0.00,0.00,VWS V14.01,2013-02-02 10:45:00,
2013-02-02 04:50:00,-6.5,-10.8,30.15,SSW,192,0.0,1.0,81,0.00,,---,0.00,0.00,VWS V14.01,2013-02-02 10:50:00,
2013-02-02 04:55:00,-6.7,-11.0,30.15,SSW,192,0.0,1.0,81,0.00,,---,0.00,0.00,VWS V14.01,2013-02-02 10:55:00,
2013-02-02 05:00:00,-7.0,-11.3,30.15,SSW,192,0.0,1.0,81,0.00,,---,0.00,0.00,VWS V14.01,2013-02-02 11:00:00,
2013-02-02 05:05:00,-7.3,-11.6,30.15,SSW,192,0.0,0.0,81,0.00,,---,0.00,0.00,VWS V14.01,2013-02-02 11:05:00,
2013-02-02 05:10:00,-7.7,-12.0,30.15,SSW,192,0.0,0.0,81,0.00,,---,0.00,0.00,VWS V14.01,2013-02-02 11:10:00,
2013-02-02 05:15:00,-8.0,-9.7,30.15,SSW,192,0.0,0.0,92,0.00,,---,0.00,0.00,VWS V14.01,2013-02-02 11:15:00,
2013-02-02 05:20:00,-8.3,-12.8,30.15,SSW,192,0.0,0.0,80,0.00,,---,0.00,0.00,VWS V14.01,2013-02-02 11:20:00,
2013-02-02 05:25:00,-8.6,-12.9,30.15,SSW,192,0.0,0.0,81,0.00,,---,0.00,0.00,VWS V14.01,2013-02-02 11:25:00,
2013-02-02 05:30:00,-8.8,-13.0,30.15,SSW,192,0.0,0.0,81,0.00,,---,0.00,0.00,VWS V14.01,2013-02-02 11:30:00,
2013-02-02 05:35:00,-9.0,-13.2,30.15,SSW,192,0.0,0.0,81,0.00,,---,0.00,0.00,VWS V14.01,2013-02-02 11:35:00,
2013-02-02 05:40:00,-9.2,-13.4,30.15,SSW,192,0.0,1.0,81,0.00,,---,0.00,0.00,VWS V14.01,2013-02-02 11:40:00,
2013-02-02 05:45:00,-9.4,-13.6,30.15,SSW,192,0.0,1.0,81,0.00,,---,0.00,0.00,VWS V14.01,2013-02-02 11:45:00,
2013-02-02 05:50:00,-9.5,-13.7,30.15,SSW,192,0.0,1.0,81,0.00,,---,0.00,0.00,VWS V14.01,2013-02-02 11:50:00,
2013-02-02 05:55:00,-9.7,-13.9,30.15,SSW,192,0.0,1.0,81,0.00,,---,0.00,0.00,VWS V14.01,2013-02-02 11:55:00,
2013-02-02 06:00:00,-9.8,-14.0,30.15,SSW,192,0.0,1.0,81,0.00,,---,0.00,0.00,VWS V14.01,2013-02-02 12:00:00,
2013-02-02 06:05:00,-9.8,-14.0,30.15,SSW,192,0.0,0.0,81,0.00,,---,0.00,0.00,VWS V14.01,2013-02-02 12:05:00,
2013-02-02 06:10:00,-9.9,-14.1,30.15,SSW,192,0.0,0.0,81,0.00,,---,0.00,0.00,VWS V14.01,2013-02-02 12:10:00,
2013-02-02 06:15:00,-10.1,-14.3,30.15,SSW,192,0.0,0.0,81,0.00,,---,0.00,0.00,VWS V14.01,2013-02-02 12:15:00,
2013-02-02 06:20:00,-10.2,-14.4,30.15,SSW,192,0.0,0.0,81,0.00,,---,0.00,0.00,VWS V14.01,2013-02-02 12:20:00,
2013-02-02 06:25:00,-10.3,-14.5,30.15,SSW,192,0.0,0.0,81,0.00,,---,0.00,0.00,VWS V14.01,2013-02-02 12:25:00,
2013-02-02 06:30:00,-10.4,-14.4,30.15,SSW,192,0.0,0.0,82,0.00,,---,0.00,0.00,VWS V14.01,2013-02-02 12:30:00,
2013-02-02 06:35:00,-10.5,-14.5,30.15,SSW,192,0.0,0.0,82,0.00,,---,0.00,0.00,VWS V14.01,2013-02-02 12:35:00,
2013-02-02 06:40:00,-10.6,-14.6,30.15,SSW,192,0.0,0.0,82,0.00,,---,0.00,0.00,VWS V14.01,2013-02-02 12:40:00,
2013-02-02 06:45:00,-10.6,-14.6,30.15,SSW,192,0.0,0.0,82,0.00,,---,0.00,0.00,VWS V14.01,2013-02-02 12:45:00,
2013-02-02 06:50:00,-10.6,-14.6,30.16,SSW,192,0.0,0.0,82,0.00,,---,0.00,0.00,VWS V14.01,2013-02-02 12:50:00,
2013-02-02 06:55:00,-10.6,-14.6,30.16,SSW,192,0.0,0.0,82,0.00,,---,0.00,0.00,VWS V14.01,2013-02-02 12:55:00,
2013-02-02 07:00:00,-10.6,-14.6,30.16,SSW,192,0.0,0.0,82,0.00,,---,0.00,0.00,VWS V14.01,2013-02-02 13:00:00,
2013-02-02 07:05:00,-10.7,-14.7,30.16,SSW,192,0.0,0.0,82,0.00,,---,0.00,0.00,VWS V14.01,2013-02-02 13:05:00,
2013-02-02 07:10:00,-10.7,-14.7,30.16,SSW,192,0.0,1.0,82,0.00,,---,0.00,0.00,VWS V14.01,2013-02-02 13:10:00,
2013-02-02 07:15:00,-10.7,-14.7,30.16,SSW,192,0.0,1.0,82,0.00,,---,0.00,0.00,VWS V14.01,2013-02-02 13:15:00,
2013-02-02 07:20:00,-10.6,-14.3,30.16,SSW,192,0.0,1.0,83,0.00,,---,0.00,0.00,VWS V14.01,2013-02-02 13:20:00,
2013-02-02 07:25:00,-10.6,-14.3,30.16,SSW,192,0.0,1.0,83,0.00,,---,0.00,0.00,VWS V14.01,2013-02-02 13:25:00,
2013-02-02 07:30:00,-10.7,-14.4,30.16,SSW,192,0.0,1.0,83,0.00,,---,0.00,5.00,VWS V14.01,2013-02-02 13:30:00,
2013-02-02 07:35:00,-10.6,-14.3,30.16,SSW,192,0.0,0.0,83,0.00,,---,0.00,7.00,VWS V14.01,2013-02-02 13:35:00,
2013-02-02 07:40:00,-10.5,-14.2,30.16,SSW,192,0.0,0.0,83,0.00,,---,0.00,11.00,VWS V14.01,2013-02-02 13:40:00,
2013-02-02 07:45:00,-10.5,-14.2,30.16,SSW,192,0.0,0.0,83,0.00,,---,0.00,12.00,VWS V14.01,2013-02-02 13:45:00,
2013-02-02 07:50:00,-10.4,-14.1,30.16,SSW,192,0.0,0.0,83,0.00,,---,0.00,16.00,VWS V14.01,2013-02-02 13:50:00,
2013-02-02 07:55:00,-10.4,-14.1,30.16,SSW,192,0.0,1.0,83,0.00,,---,0.00,19.00,VWS V14.01,2013-02-02 13:55:00,
2013-02-02 08:00:00,-10.2,-13.9,30.16,SSW,192,0.0,1.0,83,0.00,,---,0.00,23.00,VWS V14.01,2013-02-02 14:00:00,
2013-02-02 08:05:00,-10.1,-13.6,30.16,SSW,192,0.0,0.0,84,0.00,,---,0.00,26.00,VWS V14.01,2013-02-02 14:05:00,
2013-02-02 08:10:00,-10.0,-13.7,30.16,SSW,192,0.0,0.0,83,0.00,,---,0.00,30.00,VWS V14.01,2013-02-02 14:10:00,
2013-02-02 08:15:00,-9.8,-13.3,30.16,SSW,192,0.0,0.0,84,0.00,,---,0.00,32.00,VWS V14.01,2013-02-02 14:15:00,
2013-02-02 08:20:00,-9.7,-13.2,30.17,SSW,192,0.0,0.0,84,0.00,,---,0.00,33.00,VWS V14.01,2013-02-02 14:20:00,
2013-02-02 08:25:00,-9.5,-13.0,30.17,SSW,193,0.0,2.0,84,0.00,,---,0.00,35.00,VWS V14.01,2013-02-02 14:25:00,
2013-02-02 08:30:00,-9.2,-12.7,30.17,SSW,194,1.0,2.0,84,0.00,,---,0.00,39.00,VWS V14.01,2013-02-02 14:30:00,
2013-02-02 08:35:00,-8.9,-12.2,30.16,SSW,194,1.0,2.0,85,0.00,,---,0.00,51.00,VWS V14.01,2013-02-02 14:35:00,
2013-02-02 08:40:00,-8.4,-11.7,30.16,SSW,194,0.0,2.0,85,0.00,,---,0.00,54.00,VWS V14.01,2013-02-02 14:40:00,
2013-02-02 08:45:00,-7.8,-11.1,30.16,SSW,194,2.0,3.0,85,0.00,,---,0.00,60.00,VWS V14.01,2013-02-02 14:45:00,
2013-02-02 08:50:00,-7.1,-10.2,30.17,SSW,194,0.0,3.0,86,0.00,,---,0.00,67.00,VWS V14.01,2013-02-02 14:50:00,
2013-02-02 08:55:00,-6.4,-9.5,30.17,SSW,194,2.0,3.0,86,0.00,,---,0.00,72.00,VWS V14.01,2013-02-02 14:55:00,
2013-02-02 09:00:00,-5.5,-8.4,30.17,SSW,194,0.0,3.0,87,0.00,,---,0.00,81.00,VWS V14.01,2013-02-02 15:00:00,
2013-02-02 09:05:00,-4.6,-7.5,30.17,SSW,195,0.0,2.0,87,0.00,,---,0.00,81.00,VWS V14.01,2013-02-02 15:05:00,
2013-02-02 09:10:00,-3.7,-6.3,30.17,SSW,194,0.0,2.0,88,0.00,,---,0.00,81.00,VWS V14.01,2013-02-02 15:10:00,
2013-02-02 09:15:00,-2.7,-5.4,30.17,SSW,194,0.0,2.0,88,0.00,,---,0.00,90.00,VWS V14.01,2013-02-02 15:15:00,
2013-02-02 09:20:00,-1.6,-4.1,30.16,SSW,194,1.0,3.0,89,0.00,,---,0.00,91.00,VWS V14.01,2013-02-02 15:20:00,
2013-02-02 09:25:00,-0.4,-2.9,30.16,SSW,195,0.0,3.0,89,0.00,,---,0.00,109.00,VWS V14.01,2013-02-02 15:25:00,
2013-02-02 09:30:00,0.6,-1.9,30.16,SSW,192,1.0,3.0,89,0.00,,---,0.00,114.00,VWS V14.01,2013-02-02 15:30:00,
2013-02-02 09:35:00,1.5,-1.0,30.16,SSW,193,0.0,1.0,89,0.00,,---,0.00,105.00,VWS V14.01,2013-02-02 15:35:00,
2013-02-02 09:40:00,2.3,-0.2,30.16,SSW,197,1.0,4.0,89,0.00,,---,0.00,114.00,VWS V14.01,2013-02-02 15:40:00,
2013-02-02 09:45:00,2.9,0.4,30.16,WNW,299,3.0,4.0,89,0.00,,---,0.00,113.00,VWS V14.01,2013-02-02 15:45:00,
2013-02-02 09:50:00,3.6,1.1,30.17,West,281,2.0,5.0,89,0.00,,---,0.00,109.00,VWS V14.01,2013-02-02 15:50:00,
2013-02-02 09:55:00,4.1,1.6,30.17,WNW,291,2.0,6.0,89,0.00,,---,0.00,104.00,VWS V14.01,2013-02-02 15:55:00,
2013-02-02 10:00:00,4.5,1.7,30.17,WNW,288,2.0,6.0,88,0.00,,---,0.00,100.00,VWS V14.01,2013-02-02 16:00:00,
2013-02-02 10:05:00,4.9,2.1,30.17,West,263,5.0,6.0,88,0.00,,---,0.00,113.00,VWS V14.01,2013-02-02 16:05:00,
2013-02-02 10:10:00,5.3,2.3,30.17,West,271,3.0,6.0,87,0.00,,---,0.00,120.00,VWS V14.01,2013-02-02 16:10:00,
2013-02-02 10:15:00,5.5,2.5,30.17,WSW,238,4.0,6.0,87,0.00,,---,0.00,116.00,VWS V14.01,2013-02-02 16:15:00,
2013-02-02 10:20:00,5.8,2.5,30.17,WNW,283,4.0,6.0,86,0.00,,---,0.00,121.00,VWS V14.01,2013-02-02 16:20:00,
2013-02-02 10:25:00,6.0,2.7,30.17,WSW,257,3.0,6.0,86,0.00,,---,0.00,130.00,VWS V14.01,2013-02-02 16:25:00,
2013-02-02 10:30:00,6.2,2.7,30.17,West,269,2.0,7.0,85,0.00,,---,0.00,139.00,VWS V14.01,2013-02-02 16:30:00,
2013-02-02 10:35:00,6.5,3.0,30.17,WSW,250,6.0,7.0,85,0.00,,---,0.00,158.00,VWS V14.01,2013-02-02 16:35:00,
2013-02-02 10:40:00,6.7,2.9,30.17,West,261,3.0,7.0,84,0.00,,---,0.00,176.00,VWS V14.01,2013-02-02 16:40:00,
2013-02-02 10:45:00,7.0,3.2,30.17,WNW,285,0.0,7.0,84,0.00,,---,0.00,188.00,VWS V14.01,2013-02-02 16:45:00,
2013-02-02 10:50:00,7.2,3.4,30.17,WNW,300,2.0,7.0,84,0.00,,---,0.00,209.00,VWS V14.01,2013-02-02 16:50:00,
2013-02-02 10:55:00,7.5,3.4,30.17,WNW,298,1.0,7.0,83,0.00,,---,0.00,232.00,VWS V14.01,2013-02-02 16:55:00,
2013-02-02 11:00:00,7.7,3.6,30.17,WSW,256,3.0,7.0,83,0.00,,---,0.00,244.00,VWS V14.01,2013-02-02 17:00:00,
2013-02-02 11:05:00,7.9,3.8,30.17,WNW,288,2.0,5.0,83,0.00,,---,0.00,258.00,VWS V14.01,2013-02-02 17:05:00,
2013-02-02 11:10:00,7.9,3.6,30.17,WSW,252,2.0,5.0,82,0.00,,---,0.00,290.00,VWS V14.01,2013-02-02 17:10:00,
2013-02-02 11:15:00,8.0,3.7,30.17,West,266,3.0,6.0,82,0.00,,---,0.00,304.00,VWS V14.01,2013-02-02 17:15:00,
2013-02-02 11:20:00,8.1,3.8,30.16,WNW,288,4.0,6.0,82,0.00,,---,0.00,325.00,VWS V14.01,2013-02-02 17:20:00,
2013-02-02 11:25:00,8.2,3.8,30.16,WNW,300,0.0,6.0,82,0.00,,---,0.00,341.00,VWS V14.01,2013-02-02 17:25:00,
2013-02-02 11:30:00,8.3,4.0,30.16,WNW,294,0.0,6.0,82,0.00,,---,0.00,364.00,VWS V14.01,2013-02-02 17:30:00,
2013-02-02 11:35:00,8.7,4.3,30.15,WSW,252,4.0,6.0,82,0.00,,---,0.00,381.00,VWS V14.01,2013-02-02 17:35:00,
2013-02-02 11:40:00,9.0,4.6,30.15,West,271,2.0,6.0,82,0.00,,---,0.00,399.00,VWS V14.01,2013-02-02 17:40:00,
2013-02-02 11:45:00,9.3,4.7,30.15,WNW,291,0.0,6.0,81,0.00,,---,0.00,410.00,VWS V14.01,2013-02-02 17:45:00,
2013-02-02 11:50:00,9.7,5.1,30.14,WNW,302,2.0,6.0,81,0.00,,---,0.00,427.00,VWS V14.01,2013-02-02 17:50:00,
2013-02-02 11:55:00,9.9,5.5,30.14,SSW,207,0.0,6.0,82,0.00,,---,0.00,443.00,VWS V14.01,2013-02-02 17:55:00,
2013-02-02 12:00:00,10.4,6.0,30.14,West,259,4.0,6.0,82,0.00,,---,0.00,457.00,VWS V14.01,2013-02-02 18:00:00,
2013-02-02 12:05:00,10.7,6.3,30.14,SW,235,2.0,5.0,82,0.00,,---,0.00,471.00,VWS V14.01,2013-02-02 18:05:00,
2013-02-02 12:10:00,10.9,6.2,30.14,West,277,2.0,6.0,81,0.00,,---,0.00,483.00,VWS V14.01,2013-02-02 18:10:00,
2013-02-02 12:15:00,11.0,6.3,30.14,NW,316,0.0,6.0,81,0.00,,---,0.00,492.00,VWS V14.01,2013-02-02 18:15:00,
2013-02-02 12:20:00,10.9,5.7,30.13,NNW,342,1.0,6.0,79,0.00,,---,0.00,497.00,VWS V14.01,2013-02-02 18:20:00,
2013-02-02 12:25:00,10.9,5.7,30.13,WNW,289,2.0,6.0,79,0.00,,---,0.00,504.00,VWS V14.01,2013-02-02 18:25:00,
2013-02-02 12:30:00,11.1,6.2,30.13,WSW,247,4.0,8.0,80,0.00,,---,0.00,526.00,VWS V14.01,2013-02-02 18:30:00,
2013-02-02 12:35:00,10.9,5.7,30.13,WNW,282,2.0,6.0,79,0.00,,---,0.00,519.00,VWS V14.01,2013-02-02 18:35:00,
2013-02-02 12:40:00,11.0,5.8,30.13,WNW,292,3.0,7.0,79,0.00,,---,0.00,526.00,VWS V14.01,2013-02-02 18:40:00,
2013-02-02 12:45:00,11.0,6.1,30.13,WSW,246,4.0,7.0,80,0.00,,---,0.00,531.00,VWS V14.01,2013-02-02 18:45:00,
2013-02-02 12:50:00,11.3,6.1,30.12,WSW,249,0.0,7.0,79,0.00,,---,0.00,529.00,VWS V14.01,2013-02-02 18:50:00,
2013-02-02 12:55:00,11.7,6.5,30.12,WNW,298,4.0,7.0,79,0.00,,---,0.00,526.00,VWS V14.01,2013-02-02 18:55:00,
2013-02-02 13:00:00,11.9,6.7,30.12,NW,317,1.0,7.0,79,0.00,,---,0.00,540.00,VWS V14.01,2013-02-02 19:00:00,
2013-02-02 13:05:00,12.1,6.6,30.12,WNW,296,3.0,3.0,78,0.00,,---,0.00,543.00,VWS V14.01,2013-02-02 19:05:00,
2013-02-02 13:10:00,12.4,6.6,30.12,SSW,200,2.0,5.0,77,0.00,,---,0.00,541.00,VWS V14.01,2013-02-02 19:10:00,
2013-02-02 13:15:00,12.6,6.8,30.12,SSW,213,3.0,5.0,77,0.00,,---,0.00,550.00,VWS V14.01,2013-02-02 19:15:00,
2013-02-02 13:20:00,12.5,6.7,30.11,WNW,288,3.0,5.0,77,0.00,,---,0.00,403.00,VWS V14.01,2013-02-02 19:20:00,
2013-02-02 13:25:00,12.5,6.7,30.11,WNW,285,0.0,5.0,77,0.00,,---,0.00,545.00,VWS V14.01,2013-02-02 19:25:00,
2013-02-02 13:30:00,12.7,6.3,30.11,ENE,73,0.0,5.0,75,0.00,,---,0.00,612.00,VWS V14.01,2013-02-02 19:30:00,
2013-02-02 13:35:00,13.0,6.9,30.10,NW,318,3.0,3.0,76,0.00,,---,0.00,281.00,VWS V14.01,2013-02-02 19:35:00,
2013-02-02 13:40:00,12.8,7.0,30.10,NW,315,1.0,3.0,77,0.00,,---,0.00,401.00,VWS V14.01,2013-02-02 19:40:00,
2013-02-02 13:45:00,12.6,6.8,30.10,NW,315,1.0,3.0,77,0.00,,---,0.00,199.00,VWS V14.01,2013-02-02 19:45:00,
2013-02-02 13:50:00,12.8,6.4,30.09,NW,315,0.0,3.0,75,0.00,,---,0.00,153.00,VWS V14.01,2013-02-02 19:50:00,
2013-02-02 13:55:00,13.2,6.5,30.09,West,269,3.0,5.0,74,0.00,,---,0.00,151.00,VWS V14.01,2013-02-02 19:55:00,
2013-02-02 14:00:00,13.3,7.4,30.09,WSW,254,2.0,5.0,77,0.00,,---,0.00,105.00,VWS V14.01,2013-02-02 20:00:00,
2013-02-02 14:05:00,13.2,6.8,30.09,WSW,254,0.0,3.0,75,0.00,,---,0.00,109.00,VWS V14.01,2013-02-02 20:05:00,
2013-02-02 14:10:00,13.2,5.9,30.09,WSW,254,2.0,3.0,72,0.00,,---,0.00,114.00,VWS V14.01,2013-02-02 20:10:00,
2013-02-02 14:15:00,13.0,6.3,30.09,WSW,248,1.0,3.0,74,0.00,,---,0.00,109.00,VWS V14.01,2013-02-02 20:15:00,
2013-02-02 14:20:00,12.8,6.1,30.08,WSW,241,1.0,3.0,74,0.00,,---,0.00,100.00,VWS V14.01,2013-02-02 20:20:00,
2013-02-02 14:25:00,12.2,4.9,30.08,WSW,242,2.0,3.0,72,0.00,,---,0.00,70.00,VWS V14.01,2013-02-02 20:25:00,
2013-02-02 14:30:00,11.9,4.9,30.08,ESE,122,4.0,4.0,73,0.00,,---,0.00,56.00,VWS V14.01,2013-02-02 20:30:00,
2013-02-02 14:35:00,11.7,4.7,30.08,East,98,0.0,3.0,73,0.00,,---,0.00,65.00,VWS V14.01,2013-02-02 20:35:00,
2013-02-02 14:40:00,11.6,4.9,30.08,ESE,113,2.0,3.0,74,0.00,,---,0.00,72.00,VWS V14.01,2013-02-02 20:40:00,
2013-02-02 14:45:00,11.4,4.1,30.08,ESE,113,1.0,3.0,72,0.00,,---,0.00,174.00,VWS V14.01,2013-02-02 20:45:00,
2013-02-02 14:50:00,11.2,4.2,30.07,ENE,78,3.0,5.0,73,0.00,,---,0.00,67.00,VWS V14.01,2013-02-02 20:50:00,
2013-02-02 14:55:00,10.8,3.9,30.07,East,79,5.0,5.0,73,0.00,,---,0.00,56.00,VWS V14.01,2013-02-02 20:55:00,
2013-02-02 15:00:00,10.5,3.9,30.07,East,85,0.0,5.0,74,0.00,,---,0.00,47.00,VWS V14.01,2013-02-02 21:00:00,
2013-02-02 15:05:00,10.4,4.1,30.07,East,94,0.0,3.0,75,0.00,,---,0.00,46.00,VWS V14.01,2013-02-02 21:05:00,
2013-02-02 15:10:00,10.2,4.2,30.07,East,95,0.0,3.0,76,0.00,,---,0.00,141.00,VWS V14.01,2013-02-02 21:10:00,
2013-02-02 15:15:00,10.1,4.1,30.07,South,180,0.0,3.0,76,0.00,,---,0.00,53.00,VWS V14.01,2013-02-02 21:15:00,
2013-02-02 15:20:00,10.0,4.2,30.07,South,179,0.0,4.0,77,0.00,,---,0.00,65.00,VWS V14.01,2013-02-02 21:20:00,
2013-02-02 15:25:00,9.9,4.2,30.07,South,179,0.0,4.0,77,0.00,,---,0.00,105.00,VWS V14.01,2013-02-02 21:25:00,
2013-02-02 15:30:00,9.9,4.4,30.07,South,179,0.0,4.0,78,0.00,,---,0.00,72.00,VWS V14.01,2013-02-02 21:30:00,
2013-02-02 15:35:00,9.9,4.4,30.07,South,179,0.0,0.0,78,0.00,,---,0.00,70.00,VWS V14.01,2013-02-02 21:35:00,
2013-02-02 15:40:00,9.9,4.4,30.07,South,179,0.0,0.0,78,0.00,,---,0.00,67.00,VWS V14.01,2013-02-02 21:40:00,
2013-02-02 15:45:00,9.9,4.4,30.07,South,179,0.0,0.0,78,0.00,,---,0.00,63.00,VWS V14.01,2013-02-02 21:45:00,
2013-02-02 15:50:00,9.9,4.4,30.07,South,179,0.0,2.0,78,0.00,,---,0.00,60.00,VWS V14.01,2013-02-02 21:50:00,
2013-02-02 15:55:00,9.9,4.4,30.07,ESE,123,1.0,2.0,78,0.00,,---,0.00,56.00,VWS V14.01,2013-02-02 21:55:00,
2013-02-02 16:00:00,9.9,4.4,30.07,ESE,123,0.0,2.0,78,0.00,,---,0.00,53.00,VWS V14.01,2013-02-02 22:00:00,
2013-02-02 16:05:00,9.9,4.2,30.07,ESE,123,0.0,0.0,77,0.00,,---,0.00,49.00,VWS V14.01,2013-02-02 22:05:00,
2013-02-02 16:10:00,9.9,4.2,30.07,ESE,123,0.0,0.0,77,0.00,,---,0.00,47.00,VWS V14.01,2013-02-02 22:10:00,
2013-02-02 16:15:00,9.9,4.2,30.07,ESE,123,0.0,2.0,77,0.00,,---,0.00,46.00,VWS V14.01,2013-02-02 22:15:00,
2013-02-02 16:20:00,9.9,4.4,30.06,ESE,123,0.0,2.0,78,0.00,,---,0.00,42.00,VWS V14.01,2013-02-02 22:20:00,
2013-02-02 16:25:00,9.9,4.4,30.06,ESE,123,0.0,2.0,78,0.00,,---,0.00,39.00,VWS V14.01,2013-02-02 22:25:00,
2013-02-02 16:30:00,9.9,4.4,30.06,ESE,123,0.0,2.0,78,0.00,,---,0.00,39.00,VWS V14.01,2013-02-02 22:30:00,
2013-02-02 16:35:00,9.9,4.7,30.06,ESE,123,0.0,3.0,79,0.00,,---,0.00,39.00,VWS V14.01,2013-02-02 22:35:00,
2013-02-02 16:40:00,9.9,4.7,30.06,ESE,123,0.0,3.0,79,0.00,,---,0.00,39.00,VWS V14.01,2013-02-02 22:40:00,
2013-02-02 16:45:00,9.9,5.0,30.06,ESE,123,0.0,3.0,80,0.00,,---,0.00,33.00,VWS V14.01,2013-02-02 22:45:00,
2013-02-02 16:50:00,9.9,5.0,30.06,ESE,123,0.0,3.0,80,0.00,,---,0.00,25.00,VWS V14.01,2013-02-02 22:50:00,
2013-02-02 16:55:00,9.9,5.2,30.06,ESE,123,2.0,3.0,81,0.00,,---,0.00,16.00,VWS V14.01,2013-02-02 22:55:00,
2013-02-02 17:00:00,9.8,5.2,30.06,ESE,123,0.0,3.0,81,0.00,,---,0.00,9.00,VWS V14.01,2013-02-02 23:00:00,
2013-02-02 17:05:00,9.6,4.9,30.06,ESE,123,0.0,1.0,81,0.00,,---,0.00,5.00,VWS V14.01,2013-02-02 23:05:00,
2013-02-02 17:10:00,9.4,4.5,30.06,ESE,123,1.0,1.0,80,0.00,,---,0.00,0.00,VWS V14.01,2013-02-02 23:10:00,
2013-02-02 17:15:00,9.2,4.3,30.06,ESE,123,0.0,1.0,80,0.00,,---,0.00,0.00,VWS V14.01,2013-02-02 23:15:00,
2013-02-02 17:20:00,8.9,4.0,30.06,ESE,123,0.0,1.0,80,0.00,,---,0.00,0.00,VWS V14.01,2013-02-02 23:20:00,
2013-02-02 17:25:00,8.6,3.7,30.06,ESE,123,0.0,1.0,80,0.00,,---,0.00,0.00,VWS V14.01,2013-02-02 23:25:00,
2013-02-02 17:30:00,8.3,3.4,30.06,ESE,123,0.0,1.0,80,0.00,,---,0.00,0.00,VWS V14.01,2013-02-02 23:30:00,
2013-02-02 17:35:00,8.0,3.1,30.05,ESE,123,0.0,0.0,80,0.00,,---,0.00,0.00,VWS V14.01,2013-02-02 23:35:00,
2013-02-02 17:40:00,7.8,2.9,30.05,ESE,123,0.0,0.0,80,0.00,,---,0.00,0.00,VWS V14.01,2013-02-02 23:40:00,
2013-02-02 17:45:00,7.5,2.9,30.05,ESE,123,0.0,0.0,81,0.00,,---,0.00,0.00,VWS V14.01,2013-02-02 23:45:00,
2013-02-02 17:50:00,7.2,2.6,30.05,ESE,123,0.0,0.0,81,0.00,,---,0.00,0.00,VWS V14.01,2013-02-02 23:50:00,
2013-02-02 17:55:00,7.0,2.4,30.05,ESE,123,0.0,0.0,81,0.00,,---,0.00,0.00,VWS V14.01,2013-02-02 23:55:00,
2013-02-02 18:00:00,6.8,2.5,30.05,ESE,123,0.0,0.0,82,0.00,,---,0.00,0.00,VWS V14.01,2013-02-03 00:00:00,
2013-02-02 18:05:00,6.6,2.3,30.04,ESE,123,0.0,0.0,82,0.00,,---,0.00,0.00,VWS V14.01,2013-02-03 00:05:00,
2013-02-02 18:10:00,6.4,1.8,30.04,ESE,123,0.0,0.0,81,0.00,,---,0.00,0.00,VWS V14.01,2013-02-03 00:10:00,
2013-02-02 18:15:00,6.1,1.5,30.04,ESE,123,0.0,0.0,81,0.00,,---,0.00,0.00,VWS V14.01,2013-02-03 00:15:00,
2013-02-02 18:20:00,5.7,1.1,30.03,ESE,123,1.0,2.0,81,0.00,,---,0.00,0.00,VWS V14.01,2013-02-03 00:20:00,
2013-02-02 18:25:00,5.4,0.9,30.03,ESE,123,0.0,2.0,81,0.00,,---,0.00,0.00,VWS V14.01,2013-02-03 00:25:00,
2013-02-02 18:30:00,5.1,0.6,30.03,ESE,123,0.0,2.0,81,0.00,,---,0.00,0.00,VWS V14.01,2013-02-03 00:30:00,
2013-02-02 18:35:00,4.8,0.3,30.03,ESE,123,0.0,0.0,81,0.00,,---,0.00,0.00,VWS V14.01,2013-02-03 00:35:00,
2013-02-02 18:40:00,4.4,-0.4,30.03,ESE,123,0.0,1.0,80,0.00,,---,0.00,0.00,VWS V14.01,2013-02-03 00:40:00,
2013-02-02 18:45:00,4.1,-0.4,30.03,ESE,123,0.0,1.0,81,0.00,,---,0.00,0.00,VWS V14.01,2013-02-03 00:45:00,
2013-02-02 18:50:00,3.8,-1.0,30.03,ESE,123,0.0,1.0,80,0.00,,---,0.00,0.00,VWS V14.01,2013-02-03 00:50:00,
2013-02-02 18:55:00,3.5,-1.0,30.03,ESE,123,0.0,1.0,81,0.00,,---,0.00,0.00,VWS V14.01,2013-02-03 00:55:00,
2013-02-02 19:00:00,3.0,-1.8,30.03,ESE,123,0.0,1.0,80,0.00,,---,0.00,0.00,VWS V14.01,2013-02-03 01:00:00,
2013-02-02 19:05:00,2.6,-2.2,30.03,ESE,123,0.0,0.0,80,0.00,,---,0.00,0.00,VWS V14.01,2013-02-03 01:05:00,
2013-02-02 19:10:00,2.2,-2.3,30.03,ESE,123,0.0,0.0,81,0.00,,---,0.00,0.00,VWS V14.01,2013-02-03 01:10:00,
2013-02-02 19:15:00,1.7,-3.0,30.03,ESE,123,1.0,1.0,80,0.00,,---,0.00,0.00,VWS V14.01,2013-02-03 01:15:00,
2013-02-02 19:20:00,1.2,-3.5,30.03,ESE,123,1.0,2.0,80,0.00,,---,0.00,0.00,VWS V14.01,2013-02-03 01:20:00,
2013-02-02 19:25:00,0.6,-4.4,30.03,ESE,123,1.0,2.0,79,0.00,,---,0.00,0.00,VWS V14.01,2013-02-03 01:25:00,
2013-02-02 19:30:00,0.2,-4.5,30.03,ESE,123,0.0,2.0,80,0.00,,---,0.00,0.00,VWS V14.01,2013-02-03 01:30:00,
2013-02-02 19:35:00,-0.1,-4.5,30.03,ESE,123,0.0,1.0,81,0.00,,---,0.00,0.00,VWS V14.01,2013-02-03 01:35:00,
2013-02-02 19:40:00,-0.3,-4.7,30.03,ESE,123,0.0,1.0,81,0.00,,---,0.00,0.00,VWS V14.01,2013-02-03 01:40:00,
2013-02-02 19:45:00,-0.5,-4.9,30.03,ESE,123,0.0,1.0,81,0.00,,---,0.00,0.00,VWS V14.01,2013-02-03 01:45:00,
2013-02-02 19:50:00,-0.6,-4.8,30.02,ESE,123,0.0,1.0,82,0.00,,---,0.00,0.00,VWS V14.01,2013-02-03 01:50:00,
2013-02-02 19:55:00,-0.7,-4.9,30.02,ESE,123,0.0,1.0,82,0.00,,---,0.00,0.00,VWS V14.01,2013-02-03 01:55:00,
2013-02-02 20:00:00,-0.8,-5.0,30.02,ESE,123,0.0,1.0,82,0.00,,---,0.00,0.00,VWS V14.01,2013-02-03 02:00:00,
2013-02-02 20:05:00,-0.8,-4.7,30.02,ESE,123,0.0,0.0,83,0.00,,---,0.00,0.00,VWS V14.01,2013-02-03 02:05:00,
2013-02-02 20:10:00,-0.8,-4.7,30.02,ESE,123,0.0,1.0,83,0.00,,---,0.00,0.00,VWS V14.01,2013-02-03 02:10:00,
2013-02-02 20:15:00,-0.7,-4.4,30.02,ESE,123,0.0,1.0,84,0.00,,---,0.00,0.00,VWS V14.01,2013-02-03 02:15:00,
2013-02-02 20:20:00,-0.6,-4.3,30.01,ESE,123,0.0,1.0,84,0.00,,---,0.00,0.00,VWS V14.01,2013-02-03 02:20:00,
2013-02-02 20:25:00,-0.5,-4.2,30.01,ESE,123,0.0,1.0,84,0.00,,---,0.00,0.00,VWS V14.01,2013-02-03 02:25:00,
2013-02-02 20:30:00,-0.4,-4.1,30.01,ESE,123,0.0,1.0,84,0.00,,---,0.00,0.00,VWS V14.01,2013-02-03 02:30:00,
2013-02-02 20:35:00,-0.2,-3.6,30.00,ESE,123,0.0,0.0,85,0.00,,---,0.00,0.00,VWS V14.01,2013-02-03 02:35:00,
2013-02-02 20:40:00,-0.1,-3.4,30.00,ESE,123,0.0,0.0,85,0.00,,---,0.00,0.00,VWS V14.01,2013-02-03 02:40:00,
2013-02-02 20:45:00,0.2,-3.2,30.00,ESE,123,0.0,2.0,85,0.00,,---,0.00,0.00,VWS V14.01,2013-02-03 02:45:00,
2013-02-02 20:50:00,0.4,-2.8,30.00,ESE,123,0.0,2.0,86,0.00,,---,0.00,0.00,VWS V14.01,2013-02-03 02:50:00,
2013-02-02 20:55:00,0.5,-2.7,30.00,ESE,123,0.0,2.0,86,0.00,,---,0.00,0.00,VWS V14.01,2013-02-03 02:55:00,
2013-02-02 21:00:00,0.7,-2.5,30.00,ESE,123,0.0,2.0,86,0.00,,---,0.00,0.00,VWS V14.01,2013-02-03 03:00:00,
2013-02-02 21:05:00,1.0,-2.2,30.00,ESE,123,2.0,2.0,86,0.00,,---,0.00,0.00,VWS V14.01,2013-02-03 03:05:00,
2013-02-02 21:10:00,1.3,-1.7,30.00,ESE,123,0.0,2.0,87,0.00,,---,0.00,0.00,VWS V14.01,2013-02-03 03:10:00,
2013-02-02 21:15:00,1.5,-1.5,30.00,South,169,0.0,2.0,87,0.00,,---,0.00,0.00,VWS V14.01,2013-02-03 03:15:00,
2013-02-02 21:20:00,1.7,-1.3,29.99,South,169,0.0,2.0,87,0.00,,---,0.00,0.00,VWS V14.01,2013-02-03 03:20:00,
2013-02-02 21:25:00,1.9,-1.1,29.99,South,169,0.0,2.0,87,0.00,,---,0.00,0.00,VWS V14.01,2013-02-03 03:25:00,
2013-02-02 21:30:00,2.2,-0.8,29.99,South,169,0.0,2.0,87,0.00,,---,0.00,0.00,VWS V14.01,2013-02-03 03:30:00,
2013-02-02 21:35:00,2.4,-0.6,30.00,South,169,0.0,2.0,87,0.00,,---,0.00,0.00,VWS V14.01,2013-02-03 03:35:00,
2013-02-02 21:40:00,2.7,-0.3,30.00,South,170,2.0,3.0,87,0.00,,---,0.00,0.00,VWS V14.01,2013-02-03 03:40:00,
2013-02-02 21:45:00,2.9,-0.1,30.00,South,170,1.0,3.0,87,0.00,,---,0.00,0.00,VWS V14.01,2013-02-03 03:45:00,
2013-02-02 21:50:00,3.2,0.2,29.99,South,171,0.0,3.0,87,0.00,,---,0.00,0.00,VWS V14.01,2013-02-03 03:50:00,
2013-02-02 21:55:00,3.3,0.3,29.99,SW,220,1.0,4.0,87,0.00,,---,0.00,0.00,VWS V14.01,2013-02-03 03:55:00,
2013-02-02 22:00:00,3.6,0.4,29.99,SW,219,0.0,4.0,86,0.00,,---,0.00,0.00,VWS V14.01,2013-02-03 04:00:00,
2013-02-02 22:05:00,3.7,0.5,29.99,WSW,240,2.0,4.0,86,0.00,,---,0.00,0.00,VWS V14.01,2013-02-03 04:05:00,
2013-02-02 22:10:00,3.9,0.6,29.99,SW,234,0.0,4.0,86,0.00,,---,0.00,0.00,VWS V14.01,2013-02-03 04:10:00,
2013-02-02 22:15:00,4.0,0.5,29.99,South,169,3.0,4.0,85,0.00,,---,0.00,0.00,VWS V14.01,2013-02-03 04:15:00,
2013-02-02 22:20:00,4.1,0.3,29.98,South,182,0.0,5.0,84,0.00,,---,0.00,0.00,VWS V14.01,2013-02-03 04:20:00,
2013-02-02 22:25:00,4.2,0.2,29.98,SW,234,3.0,5.0,83,0.00,,---,0.00,0.00,VWS V14.01,2013-02-03 04:25:00,
2013-02-02 22:30:00,4.2,0.2,29.98,SSW,210,0.0,6.0,83,0.00,,---,0.00,0.00,VWS V14.01,2013-02-03 04:30:00,
2013-02-02 22:34:00,4.2,-0.1,29.98,SW,233,3.0,4.0,82,0.00,,---,0.00,0.00,VWS V14.01,2013-02-03 04:34:00,
2013-02-02 22:39:00,4.2,-0.1,29.98,SW,229,1.0,4.0,82,0.00,,---,0.00,0.00,VWS V14.01,2013-02-03 04:39:00,
2013-02-02 22:44:00,4.2,-0.1,29.98,SW,229,1.0,4.0,82,0.00,,---,0.00,0.00,VWS V14.01,2013-02-03 04:44:00,
2013-02-02 22:49:00,4.2,-0.3,29.98,South,173,0.0,4.0,81,0.00,,---,0.00,0.00,VWS V14.01,2013-02-03 04:49:00,
2013-02-02 22:54:00,4.1,-0.4,29.98,SSE,161,0.0,4.0,81,0.00,,---,0.00,0.00,VWS V14.01,2013-02-03 04:54:00,
2013-02-02 22:59:00,4.1,-0.4,29.98,SSE,161,1.0,4.0,81,0.00,,---,0.00,0.00,VWS V14.01,2013-02-03 04:59:00,
2013-02-02 23:00:00,4.1,-0.4,29.98,SSE,161,1.0,4.0,81,0.00,,---,0.00,0.00,VWS V14.01,2013-02-03 05:00:00,
2013-02-02 23:01:00,4.1,-0.4,29.97,SW,225,0.0,4.0,81,0.00,,---,0.00,0.00,VWS V14.01,2013-02-03 05:01:00,
2013-02-02 23:03:00,4.1,-0.7,29.97,SW,225,0.0,1.0,80,0.00,,---,0.00,0.00,VWS V14.01,2013-02-03 05:03:00,
2013-02-02 23:08:00,4.1,-0.7,29.97,SW,214,2.0,2.0,80,0.00,,---,0.00,0.00,VWS V14.01,2013-02-03 05:08:00,
2013-02-02 23:13:00,4.0,-0.8,29.97,South,171,1.0,4.0,80,0.00,,---,0.00,0.00,VWS V14.01,2013-02-03 05:13:00,
2013-02-02 23:18:00,4.0,-0.8,29.96,WSW,244,2.0,4.0,80,0.00,,---,0.00,0.00,VWS V14.01,2013-02-03 05:18:00,
2013-02-02 23:23:00,3.9,-0.9,29.96,SSW,208,0.0,4.0,80,0.00,,---,0.00,0.00,VWS V14.01,2013-02-03 05:23:00,
2013-02-02 23:28:00,3.8,-1.0,29.96,SSW,211,0.0,4.0,80,0.00,,---,0.00,0.00,VWS V14.01,2013-02-03 05:28:00,
2013-02-02 23:33:00,3.8,-1.0,29.97,SSW,211,0.0,3.0,80,0.00,,---,0.00,0.00,VWS V14.01,2013-02-03 05:33:00,
2013-02-02 23:38:00,3.8,-1.0,29.97,South,190,0.0,4.0,80,0.00,,---,0.00,0.00,VWS V14.01,2013-02-03 05:38:00,
2013-02-02 23:43:00,3.7,-1.1,29.97,SSW,211,1.0,7.0,80,0.00,,---,0.00,0.00,VWS V14.01,2013-02-03 05:43:00,
2013-02-02 23:48:00,3.7,-1.1,29.96,SSW,206,1.0,7.0,80,0.00,,---,0.00,0.00,VWS V14.01,2013-02-03 05:48:00,
2013-02-02 23:53:00,3.7,-1.1,29.96,SW,227,4.0,7.0,80,0.00,,---,0.00,0.00,VWS V14.01,2013-02-03 05:53:00,
2013-02-02 23:58:00,3.7,-1.1,29.96,SW,229,1.0,7.0,80,0.00,,---,0.00,0.00,VWS V14.01,2013-02-03 05:58:00,